Location: Valencia
(39.4696°N, 0.3770°W)
Time: 16:02:47
(UTC+01:00)

ISS - Visible Passes

Search period start: 31 October 2014 00:00
Search period end: 10 November 2014 00:00
Orbit: 412 x 417 km, 51.6° (Epoch: 31 October)

Date Brightness Start Highest point End Pass type
(mag) Time Alt. Az. Time Alt. Az. Time Alt. Az.
07 Nov -0.4 06:55:10 10° S 06:57:43 21° SE 07:00:17 10° E visible
08 Nov 0.0 06:07:20 10° SSE 06:08:28 11° SE 06:09:36 10° ESE visible
09 Nov -2.7 06:51:59 10° SW 06:55:14 61° SE 06:58:31 10° ENE visible
